This is the latest recevied weather packets stored in our database for station/object AC1IX. If no packets are shown the sender has not sent any weather packets the latest 10 day(s).
| Time | Temp. | Humidity | Pressure | Rain* | Wind** | Luminosity | Snow |
|---|---|---|---|---|---|---|---|
| 1777495323 | 18.89° C | 54% | 1011.2 hPa | 0 mm | - | 122 W/m² | - |
| 1777495021 | 18.89° C | 53% | 1011.1 hPa | 0 mm | - | 124 W/m² | - |
| 1777494718 | 18.89° C | 53% | 1011.1 hPa | 0 mm | - | 157 W/m² | - |
| 1777494415 | 18.89° C | 53% | 1011.1 hPa | 0 mm | - | 167 W/m² | - |
| 1777494111 | 18.89° C | 53% | 1011.1 hPa | 0 mm | - | 180 W/m² | - |
| 1777493809 | 19.44° C | 52% | 1011.2 hPa | 0 mm | - | 141 W/m² | - |
| 1777493507 | 19.44° C | 51% | 1011 hPa | 0 mm | - | 182 W/m² | - |
| 1777493203 | 20° C | 50% | 1011.2 hPa | 0 mm | - | 203 W/m² | - |
| 1777492900 | 20° C | 50% | 1011.1 hPa | 0 mm | - | 219 W/m² | - |
| 1777492597 | 20° C | 51% | 1011 hPa | 0 mm | - | 234 W/m² | - |
| 1777492292 | 20° C | 49% | 1011.2 hPa | 0 mm | - | 225 W/m² | - |
| 1777491989 | 20° C | 49% | 1011 hPa | 0 mm | - | 230 W/m² | - |
| 1777491686 | 20° C | 50% | 1011 hPa | 0 mm | - | 236 W/m² | - |
| 1777491383 | 20° C | 51% | 1011.3 hPa | 0 mm | - | 251 W/m² | - |
| 1777491080 | 20° C | 51% | 1011.4 hPa | 0 mm | - | 247 W/m² | - |
| 1777490775 | 20° C | 49% | 1011.5 hPa | 0 mm | - | 236 W/m² | - |
| 1777490473 | 20° C | 49% | 1011.6 hPa | 0 mm | - | 264 W/m² | - |
| 1777490169 | 20° C | 49% | 1011.7 hPa | 0 mm | - | 250 W/m² | - |
| 1777489866 | 20.56° C | 49% | 1012 hPa | 0 mm | - | 399 W/m² | - |
| 1777489564 | 20.56° C | 49% | 1012 hPa | 0 mm | - | 355 W/m² | - |
| 1777489260 | 20.56° C | 48% | 1012.1 hPa | 0 mm | - | 394 W/m² | - |
| 1777488957 | 20.56° C | 50% | 1012.3 hPa | 0 mm | - | 407 W/m² | - |
| 1777488654 | 20.56° C | 48% | 1012.2 hPa | 0 mm | - | 419 W/m² | - |
| 1777488352 | 20.56° C | 48% | 1012.4 hPa | 0 mm | - | 406 W/m² | - |
| 1777488050 | 20.56° C | 48% | 1012.4 hPa | 0 mm | - | 352 W/m² | - |
* Rain latest hour (hover to see other rain measurements)
** Current wind speed in m/s (hover to see current wind gust speed)